カタログに戻る

STARLINK-6091

運用中通信VLEO
NORAD 56119·PAYLOAD·🇺🇸 United States

打ち上げ Mar 29, 2023 から Cape Canaveral Space Force Station

Loading…

次のパス (今後24時間)

TLE

最新Source: CelesTrak SupGP

元期: Sep 15, 2026, 03:10 UTC

1 56119C 23046AC  26258.13243056  .00051790  00000+0  18761-2 0  2588
2 56119  43.0017 157.4321 0000824 249.9570 314.5121 15.27549476    10

AllMySatでSTARLINK-6091をリアルタイム追跡

Download on the App Store